Location: Chèvreville
(49.1099°N, 2.8495°E)
Time: 15:14:32
(UTC+00:00)

SO-50 - Pass Details

Date: 10 December 2023
Orbit: 608 x 661 km, 64.6° (Epoch: 28 February)

Event Time Altitude Azimuth Distance (km) Brightness Sun altitude
Exits shadow 06:46:31 - 326° (NW) 2,427 ? -7.1°
Reaches altitude 10° 06:48:22 10° 344° (NNW) 2,036 ? -6.9°
Maximum altitude 06:50:18 12° 9° (N) 1,872 ? -6.6°
Drops below altitude 10° 06:52:14 10° 34° (NE) 2,020 ? -6.3°
Sets 06:55:53 0° 64° (ENE) 2,911 ? -5.8°
